GW2905 Weather Reports


Display with metric or nautical units.
time (UTC)temp
F
wind
direction
speed
MPH
gust
MPH
rain 1hr
in
rain 24hr
in
rain mn
in
humidity
%
barometer
mb
20260509063056 53 340 0.0 1.0 0.00 0.00 0.00 83 1021.9
20260509061607 53 350 0.0 1.0 0.00 0.00 0.00 82 1021.7
20260509060056 54 334 0.0 4.0 0.00 0.00 0.00 81 1021.6
20260509054557 54 0 0.0 4.0 0.00 0.00 0.00 80 1021.4
20260509053059 55 17 0.0 2.0 0.00 0.00 0.00 79 1021.3
20260509051555 55 34 0.0 4.0 0.00 0.00 0.00 78 1021.4
20260509050053 55 37 0.0 5.0 0.00 0.00 0.00 77 1021.3
20260509044557 56 0 0.0 5.0 0.00 0.00 0.00 76 1021.3
20260509043050 57 0 0.0 3.0 0.00 0.00 0.00 75 1021.1
20260509041553 57 43 1.0 4.0 0.00 0.00 0.00 73 1021.0
20260509040058 58 15 0.0 8.0 0.00 0.00 0.00 71 1020.9
20260509034602 59 33 1.0 4.0 0.00 0.00 0.00 70 1021.0
20260509033055 59 352 0.0 3.0 0.00 0.00 0.00 68 1020.9
20260509031602 60 13 0.0 3.0 0.00 0.00 0.00 66 1020.9
20260509030057 60 0 1.0 5.0 0.00 0.00 0.00 64 1020.7
20260509024551 61 24 1.0 4.0 0.00 0.00 0.00 62 1020.7
20260509023056 62 336 0.0 3.0 0.00 0.00 0.00 61 1020.6
20260509021559 62 0 0.0 2.0 0.00 0.00 0.00 62 1020.5
20260509014553 63 0 0.0 3.0 0.00 0.00 0.00 59 1020.6
20260509013059 63 148 0.0 4.0 0.00 0.00 0.00 62 1020.6
20260509011549 63 36 0.0 2.0 0.00 0.00 0.00 58 1020.8
20260509010050 63 0 0.0 8.0 0.00 0.00 0.00 58 1020.7
20260509004555 64 157 0.0 3.0 0.00 0.00 0.00 59 1020.7
20260509003058 64 69 0.0 2.0 0.00 0.00 0.00 58 1020.7
20260509001551 63 166 0.0 5.0 0.00 0.00 0.00 60 1020.8
20260509000058 63 110 1.0 4.0 0.00 0.00 0.00 57 1020.8
20260508234555 66 0 0.0 4.0 0.00 0.00 0.00 55 1020.8
20260508233102 65 0 1.0 5.0 0.00 0.00 0.00 53 1020.8
20260508231632 66 186 1.0 4.0 0.00 0.00 0.00 53 1021.0
20260508230059 65 169 1.0 4.0 0.00 0.00 0.00 55 1021.0
20260508224608 65 48 1.0 5.0 0.00 0.00 0.00 52 1020.9
20260508223049 64 113 1.0 5.0 0.00 0.00 0.00 57 1021.0
20260508221555 63 167 1.0 4.0 0.00 0.00 0.00 57 1021.1
20260508220057 63 139 1.0 5.0 0.00 0.00 0.00 57 1021.0
20260508214626 63 119 1.0 5.0 0.00 0.00 0.00 57 1021.2
20260508213052 63 165 1.0 5.0 0.00 0.00 0.00 57 1021.0
20260508211554 62 168 1.0 5.0 0.00 0.00 0.00 55 1021.0
20260508210057 61 107 2.0 6.0 0.00 0.00 0.00 56 1021.1
20260508204555 62 181 1.0 3.0 0.00 0.00 0.00 58 1021.0
20260508203115 61 173 1.0 5.0 0.00 0.00 0.00 56 1021.2
20260508201555 60 178 1.0 7.0 0.00 0.00 0.00 60 1021.1
20260508200052 60 169 2.0 7.0 0.00 0.00 0.00 59 1021.1
20260508194555 59 146 1.0 5.0 0.00 0.00 0.00 60 1021.1
20260508193118 59 117 1.0 7.0 0.00 0.00 0.00 60 1021.3
20260508191554 59 136 2.0 8.0 0.00 0.00 0.00 62 1021.1
20260508190051 58 107 2.0 8.0 0.00 0.00 0.00 65 1021.3
20260508184553 57 126 1.0 7.0 0.00 0.00 0.00 67 1021.4
20260508183052 55 94 1.0 4.0 0.00 0.00 0.00 65 1021.3
20260508181556 58 123 1.0 6.0 0.00 0.00 0.00 67 1021.1
20260508180105 54 171 1.0 3.0 0.00 0.00 0.00 72 1021.2
20260508174557 53 155 0.0 4.0 0.00 0.00 0.00 74 1021.1
20260508173053 53 0 1.0 4.0 0.00 0.00 0.00 76 1020.9
20260508171552 52 190 1.0 4.0 0.00 0.00 0.00 77 1020.8
20260508170054 53 170 0.0 2.0 0.00 0.00 0.00 77 1020.5
20260508164558 51 124 0.0 3.0 0.00 0.00 0.00 78 1020.4
20260508163051 50 0 0.0 5.0 0.00 0.00 0.00 79 1020.0
20260508161550 50 0 1.0 3.0 0.00 0.00 0.00 79 1020.1
20260508160049 50 0 1.0 5.0 0.00 0.00 0.00 78 1019.8
20260508154550 51 0 1.0 6.0 0.00 0.00 0.00 80 1019.9
20260508153052 49 0 1.0 7.0 0.00 0.00 0.00 84 1019.8
20260508151552 49 0 1.0 7.0 0.00 0.00 0.00 85 1019.8
20260508150052 49 153 0.0 2.0 0.00 0.00 0.00 86 1020.0
20260508144550 49 0 0.0 2.0 0.00 0.00 0.00 87 1019.9
20260508143054 49 0 1.0 2.0 0.00 0.00 0.00 87 1020.1
20260508141554 48 0 0.0 3.0 0.00 0.00 0.00 87 1020.0
20260508140104 48 0 0.0 2.0 0.00 0.00 0.00 89 1019.5
20260508134602 48 0 0.0 2.0 0.00 0.00 0.00 89 1019.3
20260508133051 47 0 0.0 2.0 0.00 0.00 0.00 90 1019.2
20260508131555 47 0 0.0 1.0 0.00 0.00 0.00 89 1018.8
20260508130052 48 208 0.0 3.0 0.00 0.00 0.00 89 1018.4
20260508124553 48 0 0.0 2.0 0.00 0.00 0.00 89 1018.0
20260508123055 49 0 0.0 2.0 0.00 0.00 0.00 87 1018.1
20260508121557 49 0 0.0 1.0 0.00 0.00 0.00 85 1017.8
20260508120056 49 0 0.0 1.0 0.00 0.00 0.00 85 1017.7
20260508114609 49 0 0.0 0.0 0.00 0.00 0.00 85 1017.7
20260508113105 50 0 0.0 1.0 0.00 0.00 0.00 84 1017.4
20260508111600 50 17 0.0 1.0 0.00 0.00 0.00 83 1017.2
20260508110051 51 0 0.0 1.0 0.00 0.00 0.00 81 1017.1
20260508104553 50 0 0.0 0.0 0.00 0.00 0.00 82 1016.9
20260508103053 51 0 0.0 1.0 0.00 0.00 0.00 81 1016.9
20260508101554 51 0 0.0 1.0 0.00 0.00 0.00 80 1016.7
20260508100053 52 0 0.0 0.0 0.00 0.00 0.00 78 1016.7
20260508094600 52 0 0.0 1.0 0.00 0.00 0.00 78 1016.5
20260508093100 52 17 0.0 2.0 0.00 0.00 0.00 78 1016.3
20260508091604 52 0 0.0 1.0 0.00 0.00 0.00 78 1016.3
20260508090105 52 0 0.0 1.0 0.00 0.00 0.00 78 1016.2
20260508084552 52 0 0.0 1.0 0.00 0.00 0.00 77 1016.0
20260508083107 52 0 0.0 1.0 0.00 0.00 0.00 77 1016.1
20260508081551 52 0 0.0 2.0 0.00 0.00 0.00 78 1016.1
20260508080101 52 0 0.0 2.0 0.00 0.00 0.00 78 1016.1
20260508074603 52 0 0.0 1.0 0.00 0.00 0.00 77 1016.0
20260508073052 52 0 0.0 1.0 0.00 0.00 0.00 76 1016.0
20260508071551 53 360 0.0 2.0 0.00 0.00 0.00 73 1016.1
20260508070050 53 0 0.0 1.0 0.00 0.00 0.00 74 1016.1
20260508064555 54 171 0.0 1.0 0.00 0.00 0.00 71 1016.1